This demonstration page uses our WeatherBlox Daily Observations layout. Learn more.

Left ArrowRight Arrow

39.92423, -83.80882

Hourly Observations for January 29, 2017

Temp ( °F °C ) Dew Point ( °F °C ) Humidity (%) Winds ( mph kmh ) Pressure ( in mb ) Visibility ( mi km ) Precip ( " mm )
12:37 am 00:37 Cloudy with Light Snow 30 -1 27 -3 86 86 WNW 16 26 29.85 1011 9 14.48406 0 0.0254
12:56 am 00:56 Cloudy with Light Snow 29 -1.7 26 -3.3 89 89 WNW 14 22 29.82 1010 4 6.43736 0 0.0254
1:13 am 01:13 Cloudy with Light Freezing Rain 28 -2 27 -3 93 93 WNW 13 20 29.83 1010 6 9.65604 0 0.0254
1:20 am 01:20 Cloudy with Light Snow 28 -2 27 -3 93 93 WNW 12 19 29.83 1010 9 14.48406 0 0.0254
1:56 am 01:56 Cloudy with Light Snow 29 -1.7 26 -3.3 89 89 W 8 13 29.82 1010 9 14.48406 0 0.0254
2:13 am 02:13 Cloudy with Light Snow 28 -2 27 -3 93 93 W 8 13 29.83 1010 9 14.48406 0 0.0254
2:19 am 02:19 Cloudy with Light Snow 28 -2 27 -3 93 93 WNW 8 13 29.83 1010 9 14.48406 0 0.0254
2:23 am 02:23 Cloudy with Light Snow 28 -2 27 -3 93 93 W 8 13 29.83 1010 9 14.48406 0 0.0254
2:56 am 02:56 Cloudy 29 -1.7 26 -3.3 89 89 W 7 11 29.81 1010 10 16.0934 0 0.0254
3:56 am 03:56 Cloudy with Light Snow 29 -1.7 25 -3.9 85 85 NW 8 13 29.8 1009 9 14.48406 0 0.0254
4:49 am 04:49 Cloudy 28 -2 25 -4 86 86 NNW 8 13 29.83 1010 10 16.0934 0 0.0254
4:56 am 04:56 Cloudy 28 -2.2 24 -4.4 85 85 N 7 11 29.8 1009 10 16.0934 0 0.0254
5:56 am 05:56 Cloudy with Light Snow 27 -2.8 22 -5.6 81 81 NW 6 9 29.8 1009 9 14.48406 0 0.0254
6:56 am 06:56 Cloudy 27 -2.8 22 -5.6 81 81 NW 8 13 29.81 1010 10 16.0934 0 0.0254
7:12 am 07:12 Cloudy with Light Snow 27 -3 21 -6 80 80 NW 8 13 29.83 1010 9 14.48406 0 0.0254
7:56 am 07:56 Cloudy with Light Snow 27 -2.8 21 -6.1 78 78 WNW 13 20 29.82 1010 9 14.48406 0 0.0254
8:56 am 08:56 Cloudy with Light Snow 27 -2.8 21 -6.1 78 78 NW 9 15 29.83 1010 9 14.48406 0 0.0254
9:56 am 09:56 Cloudy with Light Snow 27 -2.8 21 -6.1 78 78 WNW 7 11 29.83 1010 9 14.48406 0 0.0254
10:40 am 10:40 Cloudy with Light Snow 28 -2 21 -6 74 74 NW 9 15 29.85 1011 9 14.48406 0 0.0254
10:56 am 10:56 Cloudy 28 -2.2 21 -6.1 75 75 NW 8 13 29.83 1010 10 16.0934 0 0.0254
11:43 am 11:43 Cloudy 28 -2 21 -6 74 74 WNW 8 13 29.85 1011 10 16.0934 0 0
11:56 am 11:56 Cloudy with Light Snow 28 -2.2 20 -6.7 72 72 WNW 8 13 29.83 1010 9 14.48406 0 0.0254
12:56 pm 12:56 Cloudy with Light Snow 28 -2.2 21 -6.1 75 75 WNW 9 15 29.81 1010 9 14.48406 0 0.0254
1:56 pm 13:56 Cloudy with Light Snow 29 -1.7 21 -6.1 72 72 W 12 19 29.79 1009 9 14.48406 0 0.0254
2:56 pm 14:56 Cloudy 29 -1.7 22 -5.6 75 75 WNW 8 13 29.78 1009 10 16.0934 0 0.0254
3:53 pm 15:53 Cloudy 28 -2 21 -6 74 74 W 12 19 29.8 1009 10 16.0934 0 0
3:56 pm 15:56 Cloudy 29 -1.7 21 -6.1 72 72 W 10 17 29.79 1009 10 16.0934 0 0
4:35 pm 16:35 Cloudy 28 -2 19 -7 69 69 W 10 17 29.83 1010 9 14.48406 0 0.0254
4:44 pm 16:44 Cloudy with Light Snow 28 -2 21 -6 74 74 WNW 15 24 29.83 1010 9 14.48406 0 0.0254
4:56 pm 16:56 Cloudy with Light Snow 27 -2.8 22 -5.6 81 81 WNW 17 28 29.81 1010 5 8.0467 0 0.0254
5:12 pm 17:12 Cloudy with Light Snow 27 -3 21 -6 80 80 WNW 10 17 29.83 1010 5 8.0467 0 0.0254
5:34 pm 17:34 Cloudy with Light Snow 27 -3 23 -5 86 86 W 13 20 29.85 1011 3 4.82802 0 0.0254
5:56 pm 17:56 Cloudy with Light Snow 26 -3.3 22 -5.6 84 84 WNW 12 19 29.84 1010 6 9.65604 0 0.0254
6:18 pm 18:18 Cloudy with Light Snow 27 -3 21 -6 80 80 WNW 10 17 29.85 1011 8 12.87472 0 0.0254
6:56 pm 18:56 Cloudy with Light Snow 26 -3.3 21 -6.1 81 81 WNW 9 15 29.86 1011 9 14.48406 0 0.0254
7:56 pm 19:56 Cloudy with Light Snow 26 -3.3 20 -6.7 78 78 WNW 15 24 29.87 1012 9 14.48406 0 0.0254
8:56 pm 20:56 Cloudy with Light Snow 25 -3.9 19 -7.2 78 78 WNW 10 17 29.87 1012 9 14.48406 0 0.0254
9:56 pm 21:56 Cloudy 25 -3.9 19 -7.2 78 78 WNW 9 15 29.88 1012 10 16.0934 0 0.0254
10:56 pm 22:56 Cloudy 25 -3.9 19 -7.2 78 78 W 12 19 29.88 1012 10 16.0934 0 0
11:36 pm 23:36 Cloudy 25 -4 19 -7 80 80 W 12 19 29.88 1012 10 16.0934 0 0
11:56 pm 23:56 Cloudy with Light Snow 25 -3.9 20 -6.7 81 81 WNW 10 17 29.89 1012 9 14.48406 0 0.0254

Powered by AerisWeather